Location: Newark
(44.1667°N, 8.2500°E)
Time: 15:58:40
(UTC+00:00)

S-56A Canister/Altair - Pass Details

Date: 11 December 2019
Orbit: 634 x 2498 km, 38.9° (Epoch: 26 January)

Event Time Altitude Azimuth Distance (km) Brightness Sun altitude
Rises 11:24:19 0° 259° (WSW) 5,942 12.2 22.8°
Reaches altitude 10° 11:28:02 10° 257° (WSW) 5,049 12.0 22.8°
Maximum altitude 11:43:01 72° 178° (S) 2,552 10.9 22.6°
Drops below altitude 10° 11:56:27 10° 98° (E) 4,585 11.5 22.3°
Sets 11:59:39 0° 96° (E) 5,389 11.8 22.2°
